Location: Briis
(48.6240°N, 2.1211°E)
Time: 16:23:01
(UTC+00:00)

Cosmos 1937 Rocket - Pass Details

Date: 25 September 2020
Orbit: 747 x 779 km, 74.0° (Epoch: 21 October)

Event Time Altitude Azimuth Distance (km) Brightness Sun altitude
Rises 03:08:19 0° 337° (NNW) 3,210 6.8 -25.2°
Reaches altitude 10° 03:10:42 10° 340° (NNW) 2,279 6.0 -24.9°
Maximum altitude 03:15:52 76° 66° (ENE) 776 3.5 -24.2°
Drops below altitude 10° 03:20:59 10° 152° (SSE) 2,261 5.9 -23.4°
Sets 03:23:21 0° 154° (SSE) 3,183 6.7 -23.1°
